[[[{"header":{"parameterUnit":"kt","parameterCategory":2,"dx":1,"dy":1,"la1":30.253999710083008,"la2":30.299108505249023,"lo1":-89.0895004272461,"lo2":-89.04439544677734,"nx":28,"ny":28,"refTime":"2022-10-01T21:00:00:Z","depth":0,"parameterNumber":1,"parameterNumberName":"U-component_of_WINDS"},"data":[0.7527,0.7546,0.7569,0.7603,0.7629,0.7656,0.7674,0.7699,0.7726,0.7763,0.7788,0.7816,0.7853,0.7891,0.7921,0.7933,0.7944,0.7933,0.7948,0.7974,0.7979,0.7984,0.7979,0.7935,0.7935,0.7918,0.7918,0.7918,0.7543,0.7569,0.7594,0.7633,0.7655,0.7679,0.7713,0.773,0.7754,0.7788,0.7814,0.7849,0.7881,0.7923,0.7958,0.7969,0.7983,0.7977,0.7975,0.7981,0.8009,0.8004,0.7965,0.7965,0.7965,0.7965,0.7965,0.7965,0.7578,0.7589,0.7626,0.7653,0.768,0.7707,0.7722,0.7754,0.778,0.7817,0.7842,0.7871,0.791,0.7965,0.799,0.8014,0.8026,0.8027,0.8027,0.8026,0.8021,0.804,0.8022,0.8022,0.8022,0.8022,0.8022,0,0.7611,0.7629,0.7655,0.7687,0.7708,0.7736,0.7765,0.7776,0.7826,0.7845,0.7875,0.7897,0.7941,0.7972,0.8011,0.8038,0.8066,0.8072,0.8073,0.8059,0.8042,0.805,0.8093,0.8072,0.8073,0.8073,0.8073,0.8073,0.7646,0.7657,0.7708,0.7722,0.7744,0.7767,0.7787,0.783,0.7848,0.7893,0.7901,0.7934,0.7962,0.8008,0.8048,0.8082,0.8095,0.8084,0.8101,0.8088,0.8093,0.8091,0.8092,0.8079,0.8078,0.8078,0.8077,0,0.7664,0.7702,0.7726,0.7776,0.7789,0.7798,0.7842,0.7856,0.7886,0.791,0.7918,0.7966,0.7996,0.8038,0.8082,0.8103,0.812,0.8134,0.8106,0.8111,0.8104,0.8103,0.8077,0.8075,0.8124,0.8123,0.8123,0,0.7709,0.7721,0.7777,0.7789,0.7805,0.7847,0.7862,0.789,0.7923,0.7942,0.7981,0.7998,0.8049,0.8073,0.8104,0.8126,0.8135,0.8152,0.816,0.8147,0.8145,0.8157,0.8159,0.8179,0.8179,0.8179,0.8179,0,0.773,0.7776,0.7796,0.7812,0.7867,0.7876,0.79,0.7938,0.7957,0.7989,0.8001,0.8036,0.8054,0.8081,0.812,0.8129,0.8148,0.817,0.8166,0.8164,0.8166,0.8165,0.8133,0.818,0.818,0.818,0.818,0,0.7772,0.7801,0.7824,0.787,0.7881,0.7895,0.793,0.7951,0.7989,0.8009,0.8035,0.8065,0.8088,0.8106,0.8139,0.814,0.8156,0.8175,0.8176,0.8179,0.8197,0.8171,0.8137,0.8135,0.8184,0.8184,0.8184,0,0.7785,0.7819,0.7855,0.7877,0.7898,0.7938,0.7955,0.7987,0.8015,0.8038,0.807,0.8097,0.8119,0.8133,0.8144,0.8178,0.8177,0.818,0.8213,0.8214,0.82,0.817,0.8153,0.814,0.8185,0.8185,0.8185,0,0.78,0.7866,0.7867,0.7888,0.7936,0.7955,0.7974,0.8009,0.8022,0.8055,0.8072,0.8112,0.813,0.8153,0.8182,0.8191,0.8179,0.8209,0.8211,0.8201,0.8189,0.8173,0.8171,0.8197,0.8197,0.8197,0.8186,0,0.7851,0.7873,0.7879,0.7923,0.7944,0.796,0.8003,0.802,0.8044,0.8073,0.81,0.8139,0.8176,0.8185,0.821,0.8217,0.8223,0.8242,0.8261,0.8241,0.8239,0.8238,0.8261,0.8262,0.8263,0.8263,0,0,0.7854,0.7886,0.7925,0.7944,0.7964,0.8005,0.8019,0.8044,0.8092,0.8106,0.8117,0.8177,0.8208,0.8237,0.8234,0.825,0.8255,0.826,0.8251,0.8249,0.8248,0.8244,0.8242,0.8265,0.8265,0.8265,0.8265,0,0.7881,0.7909,0.7921,0.7948,0.7989,0.8019,0.8022,0.807,0.8089,0.8116,0.815,0.8172,0.822,0.8248,0.8268,0.8258,0.8283,0.8267,0.8246,0.8256,0.8254,0.8252,0.8247,0.8245,0.8267,0.8267,0.8267,0,0.7902,0.7936,0.7947,0.7993,0.8021,0.8042,0.8073,0.8094,0.8111,0.8157,0.8182,0.821,0.8251,0.8273,0.8284,0.8295,0.8306,0.8311,0.8308,0.831,0.8322,0.8319,0.8316,0.8352,0.8352,0.8352,0,0,0.7919,0.794,0.7991,0.8002,0.8017,0.8062,0.8078,0.8103,0.8139,0.8153,0.8188,0.8222,0.8251,0.8268,0.8297,0.8315,0.8327,0.8319,0.8316,0.8312,0.8312,0.8323,0.832,0.8353,0.8353,0.8353,0,0,0.7928,0.7986,0.8004,0.8023,0.8054,0.8106,0.8112,0.8136,0.8166,0.8168,0.8215,0.8226,0.8247,0.8273,0.8273,0.8305,0.8323,0.8324,0.8287,0.8282,0.8278,0.8271,0.831,0,0,0,0,0,0.7976,0.7979,0.7994,0.8004,0.8064,0.8097,0.8105,0.8142,0.8154,0.8158,0.8191,0.8217,0.8282,0.8284,0.8293,0.8292,0.8358,0.8357,0.8356,0.8312,0.8307,0.8303,0,0,0,0,0,0,0.798,0.7991,0.7994,0.8045,0.8059,0.8097,0.8125,0.8135,0.8154,0.8159,0.821,0.8219,0.8252,0.8281,0.8289,0.8288,0.8308,0.8357,0.8357,0.8356,0.831,0.8306,0.8303,0,0,0,0,0,0.7983,0.7993,0.8079,0.8045,0.8057,0.8107,0.8125,0.8134,0.8149,0.8201,0.8211,0.8176,0.8251,0.826,0.8286,0.8283,0.8302,0.8305,0.8357,0.8356,0.8356,0.8308,0,0,0,0,0,0,0.7986,0.8002,0.8082,0.8087,0.8047,0.8106,0.8116,0.8133,0.8192,0.8201,0.8169,0.8172,0.825,0.8258,0.8265,0.8279,0.8298,0.8301,0.8303,0.8356,0.8356,0.8356,0,0,0,0,0,0,0.7997,0.8006,0.8085,0.8084,0.809,0.8104,0.8114,0.8142,0.8192,0.8157,0.8161,0.817,0.824,0.8256,0.8261,0.8304,0.8295,0.8297,0.8299,0.8301,0.8356,0.8356,0,0,0,0,0,0,0.8001,0.8009,0.8083,0.8087,0.8092,0.8152,0.813,0.819,0.819,0.8154,0.8191,0.8192,0.8238,0.8244,0.8259,0.8299,0.8303,0.8295,0.8297,0.8298,0.8299,0,0,0,0,0,0,0,0.8005,0.7946,0.8051,0.809,0.8094,0.8134,0.8136,0.8137,0.819,0.8191,0.8191,0.8191,0.8279,0.8282,0.8285,0.8295,0,0,0.8294,0.8296,0,0,0,0,0,0,0,0,0.7943,0.7945,0.8052,0.8053,0.8054,0.8134,0.8136,0.8137,0.819,0.8191,0.8191,0.8191,0.828,0.8282,0.8285,0,0,0,0,0,0,0,0,0,0,0,0,0,0,0,0.8052,0.8052,0,0.8135,0.8136,0.8137,0.819,0.8191,0.8191,0.8191,0.828,0.8282,0.8284,0,0,0,0,0,0,0,0,0,0,0,0,0,0,0,0,0,0,0,0,0,0,0,0,0,0,0,0,0,0,0,0,0,0,0,0,0,0,0,0,0,0,0,0,0,0,0,0,0,0,0,0,0,0,0,0,0,0,0,0,0,0,0,0,0,0,0,0,0]}],[{"header":{"parameterUnit":"kt","parameterCategory":2,"dx":1,"dy":1,"la1":30.253999710083008,"la2":30.299108505249023,"lo1":-89.0895004272461,"lo2":-89.04439544677734,"nx":28,"ny":28,"refTime":"2022-10-01T21:00:00:Z","depth":0,"parameterNumber":2,"parameterNumberName":"V-component_of_WINDS"},"data":[-5.215,-5.2156,-5.2165,-5.2175,-5.2183,-5.2191,-5.2196,-5.2204,-5.221,-5.2219,-5.2225,-5.2231,-5.2239,-5.2247,-5.2252,-5.2254,-5.2256,-5.2255,-5.2257,-5.226,-5.2261,-5.2261,-5.2262,-5.2255,-5.2255,-5.2254,-5.2254,-5.2254,-5.2157,-5.2167,-5.2174,-5.2186,-5.2193,-5.22,-5.2209,-5.2214,-5.2219,-5.2227,-5.2232,-5.2239,-5.2244,-5.2252,-5.2257,-5.2259,-5.2262,-5.226,-5.226,-5.2262,-5.2265,-5.2265,-5.2258,-5.2258,-5.2258,-5.2258,-5.2258,-5.2258,-5.2174,-5.2176,-5.2188,-5.2196,-5.2203,-5.2211,-5.2214,-5.2222,-5.2227,-5.2235,-5.224,-5.2245,-5.2252,-5.2259,-5.2262,-5.2266,-5.2268,-5.2267,-5.2267,-5.2267,-5.2268,-5.2273,-5.2266,-5.2266,-5.2266,-5.2266,-5.2266,0,-5.2188,-5.2195,-5.2201,-5.221,-5.2215,-5.2222,-5.2228,-5.223,-5.2241,-5.2244,-5.2249,-5.2253,-5.2258,-5.2262,-5.2267,-5.2269,-5.2274,-5.2274,-5.2274,-5.2273,-5.2273,-5.2276,-5.2282,-5.2273,-5.2273,-5.2274,-5.2274,-5.2274,-5.2207,-5.2207,-5.2221,-5.2225,-5.223,-5.2234,-5.2237,-5.2247,-5.225,-5.2258,-5.2258,-5.2262,-5.2266,-5.2269,-5.2274,-5.2277,-5.2278,-5.2275,-5.2278,-5.2279,-5.2281,-5.2281,-5.2282,-5.2274,-5.2274,-5.2274,-5.2274,0,-5.2217,-5.2228,-5.223,-5.2242,-5.2245,-5.2245,-5.2255,-5.2255,-5.2261,-5.2263,-5.2263,-5.2271,-5.2274,-5.2279,-5.2281,-5.2284,-5.2283,-5.2284,-5.2283,-5.2284,-5.2283,-5.2284,-5.2274,-5.2275,-5.228,-5.228,-5.228,0,-5.2238,-5.2236,-5.2253,-5.2253,-5.2253,-5.2262,-5.2261,-5.2266,-5.2271,-5.2272,-5.2279,-5.2279,-5.2285,-5.2286,-5.229,-5.229,-5.2289,-5.2291,-5.2292,-5.2291,-5.2291,-5.2292,-5.2292,-5.2291,-5.2291,-5.2292,-5.2292,0,-5.2254,-5.2259,-5.2259,-5.2262,-5.2273,-5.2272,-5.2276,-5.2281,-5.2283,-5.2285,-5.2287,-5.2288,-5.2288,-5.2289,-5.2294,-5.2296,-5.2292,-5.2296,-5.2295,-5.2295,-5.2293,-5.2293,-5.2285,-5.2292,-5.2292,-5.2292,-5.2292,0,-5.2271,-5.2276,-5.2274,-5.2284,-5.2284,-5.2283,-5.2287,-5.2287,-5.2291,-5.2293,-5.2295,-5.2299,-5.2297,-5.2302,-5.23,-5.2302,-5.2303,-5.2304,-5.2304,-5.2304,-5.2309,-5.2305,-5.2295,-5.2295,-5.2305,-5.2305,-5.2306,0,-5.2289,-5.2288,-5.2297,-5.2293,-5.2294,-5.2303,-5.2301,-5.2304,-5.2308,-5.2308,-5.231,-5.2308,-5.2312,-5.2312,-5.231,-5.2312,-5.2309,-5.2312,-5.2311,-5.2311,-5.2313,-5.2304,-5.2302,-5.2297,-5.2307,-5.2307,-5.2307,0,-5.2303,-5.2316,-5.2314,-5.2318,-5.2323,-5.2322,-5.2319,-5.232,-5.232,-5.232,-5.2319,-5.2314,-5.2318,-5.2316,-5.2318,-5.2316,-5.2311,-5.2319,-5.2319,-5.2319,-5.2307,-5.2306,-5.2305,-5.2313,-5.2313,-5.2313,-5.2308,0,-5.2332,-5.2331,-5.2327,-5.2332,-5.2331,-5.2327,-5.2333,-5.2332,-5.2336,-5.2339,-5.2334,-5.2333,-5.233,-5.2329,-5.233,-5.2323,-5.2325,-5.2327,-5.2331,-5.2324,-5.2323,-5.2322,-5.2334,-5.2334,-5.2334,-5.2334,0,0,-5.2347,-5.2346,-5.2353,-5.235,-5.2351,-5.2359,-5.2354,-5.2354,-5.2353,-5.2353,-5.2356,-5.2349,-5.2346,-5.234,-5.2338,-5.2335,-5.2335,-5.2336,-5.2327,-5.2326,-5.2326,-5.2324,-5.2323,-5.2334,-5.2334,-5.2334,-5.2334,0,-5.236,-5.2361,-5.2357,-5.2358,-5.236,-5.2363,-5.2362,-5.2364,-5.2365,-5.2359,-5.2363,-5.236,-5.2351,-5.235,-5.2348,-5.2337,-5.2339,-5.2335,-5.233,-5.2328,-5.2327,-5.2326,-5.2325,-5.2324,-5.2334,-5.2334,-5.2334,0,-5.2376,-5.2379,-5.2377,-5.2377,-5.2377,-5.2375,-5.2382,-5.2378,-5.2376,-5.2379,-5.2373,-5.2372,-5.2369,-5.2361,-5.2356,-5.2358,-5.2344,-5.2346,-5.2346,-5.2345,-5.2343,-5.2342,-5.2341,-5.2354,-5.2354,-5.2354,0,0,-5.2386,-5.2384,-5.2388,-5.2379,-5.238,-5.2383,-5.2381,-5.2384,-5.2382,-5.2381,-5.238,-5.2377,-5.2372,-5.2369,-5.2364,-5.2353,-5.2353,-5.2349,-5.2348,-5.2347,-5.2346,-5.2344,-5.2343,-5.2355,-5.2355,-5.2355,0,0,-5.2389,-5.2395,-5.2399,-5.239,-5.239,-5.2391,-5.2385,-5.2389,-5.2385,-5.2386,-5.2387,-5.2386,-5.2378,-5.2375,-5.2379,-5.2365,-5.2369,-5.2368,-5.2367,-5.2366,-5.2365,-5.2366,-5.2383,0,0,0,0,0,-5.2404,-5.2395,-5.2398,-5.2397,-5.2394,-5.2389,-5.2389,-5.2391,-5.2396,-5.2392,-5.2391,-5.2393,-5.2379,-5.2382,-5.238,-5.2375,-5.2358,-5.2358,-5.2357,-5.2354,-5.2352,-5.2351,0,0,0,0,0,0,-5.2404,-5.2403,-5.2399,-5.2399,-5.2399,-5.239,-5.2398,-5.2398,-5.2396,-5.2397,-5.2393,-5.2392,-5.2393,-5.2383,-5.2381,-5.2377,-5.2384,-5.2358,-5.2358,-5.2357,-5.2353,-5.2352,-5.2351,0,0,0,0,0,-5.2403,-5.2403,-5.2396,-5.2399,-5.2399,-5.24,-5.2398,-5.2399,-5.2397,-5.2395,-5.2395,-5.2399,-5.2392,-5.2391,-5.2382,-5.2378,-5.2385,-5.2385,-5.2358,-5.2357,-5.2357,-5.2353,0,0,0,0,0,0,-5.2403,-5.2402,-5.2396,-5.2396,-5.2403,-5.2401,-5.2401,-5.2399,-5.2395,-5.2395,-5.2401,-5.2402,-5.2392,-5.2391,-5.239,-5.2378,-5.2386,-5.2386,-5.2385,-5.2357,-5.2357,-5.2357,0,0,0,0,0,0,-5.2403,-5.2402,-5.2396,-5.24,-5.2401,-5.2401,-5.2401,-5.2392,-5.2394,-5.2401,-5.2402,-5.2402,-5.2393,-5.2391,-5.239,-5.2376,-5.2387,-5.2387,-5.2386,-5.2386,-5.2357,-5.2357,0,0,0,0,0,0,-5.2402,-5.2402,-5.24,-5.2401,-5.2401,-5.2399,-5.2393,-5.2388,-5.2401,-5.2401,-5.2402,-5.2403,-5.2393,-5.2392,-5.239,-5.2377,-5.2376,-5.2387,-5.2387,-5.2386,-5.2386,0,0,0,0,0,0,0,-5.2402,-5.2406,-5.2398,-5.2401,-5.2401,-5.2394,-5.2394,-5.2394,-5.2401,-5.2402,-5.2402,-5.2402,-5.2391,-5.2391,-5.239,-5.2377,0,0,-5.2387,-5.2387,0,0,0,0,0,0,0,0,-5.2406,-5.2406,-5.2398,-5.2398,-5.2398,-5.2394,-5.2394,-5.2394,-5.2401,-5.2402,-5.2402,-5.2402,-5.2391,-5.2391,-5.239,0,0,0,0,0,0,0,0,0,0,0,0,0,0,0,-5.2398,-5.2398,0,-5.2394,-5.2394,-5.2394,-5.2401,-5.2402,-5.2402,-5.2402,-5.2391,-5.239,-5.239,0,0,0,0,0,0,0,0,0,0,0,0,0,0,0,0,0,0,0,0,0,0,0,0,0,0,0,0,0,0,0,0,0,0,0,0,0,0,0,0,0,0,0,0,0,0,0,0,0,0,0,0,0,0,0,0,0,0,0,0,0,0,0,0,0,0,0,0,0]}]]]